Regional Weather Roundup
Issued by NWS Charleston, WV

Home | Current Version | Previous Version | Graphics & Text | Print | Product List | Glossary On
Versions: 1 2 3 4 5 6 7 8 9 10 11 12 13 14 15 16 17 18 19 20 21 22 23 24 25 26 27
000
ASUS41 KRLX 221510
RWRRLX
West Virginia Regional Weather Roundup
National Weather Service Charleston WV
1100 AM EDT FRI JUL 22 2016

Note: "fair" indicates few or no clouds below 12,000 feet with no
significant weather and/or obstructions to visibility.

WVZ003-221600-
Northern Panhandle of West Virginia

CITY           SKY/WX    TMP DP  RH WIND       PRES   REMARKS
WHEELING         N/A     82  69  64 SW9       30.06S
$$

WVZ009-221600-
Northwest West Virginia

CITY           SKY/WX    TMP DP  RH WIND       PRES   REMARKS
PARKERSBURG      N/A     82  70  66 CALM      30.10S
$$

WVZ006-221600-
Western West Virginia

CITY           SKY/WX    TMP DP  RH WIND       PRES   REMARKS
HUNTINGTON       N/A     83  70  64 VRB3      30.09R
$$

WVZ015-221600-
West Central West Virginia

CITY           SKY/WX    TMP DP  RH WIND       PRES   REMARKS
CHARLESTON       N/A     83  65  54 SW3       30.10S
$$

WVZ022-031-221600-
North Central West Virginia

CITY           SKY/WX    TMP DP  RH WIND       PRES   REMARKS
CLARKSBURG       N/A     81  66  60 S7        30.10S
MORGANTOWN       N/A     80  63  55 VRB3      30.11S
$$

WVZ025-035-042-045-221600-
Southern West Virginia

CITY           SKY/WX    TMP DP  RH WIND       PRES   REMARKS
BECKLEY          N/A     81  63  54 NW6       30.19R
LOGAN            N/A     79  68  69 VRB3      30.13S
BLUEFIELD        N/A     77  57  50 W6        30.22R
LEWISBURG        N/A     73  62  68 SW5       30.18S
$$

WVZ047-221600-
Northern Mountains of West Virginia

CITY           SKY/WX    TMP DP  RH WIND       PRES   REMARKS
ELKINS         PTSUNNY   78  62  57 CALM      30.16R
$$

WVZ052-221600-
Eastern Panhandle of West Virginia

CITY           SKY/WX    TMP DP  RH WIND       PRES   REMARKS
MARTINSBURG      N/A     85  64  49 W5        30.03F
PETERSBURG       N/A     82  67  60 CALM      30.07S
$$




USA.gov is the U.S. government's official web portal to all federal, state and local government web resources and services.